Location: Sevilla
(37.3933°N, 5.9839°W)
Time: 12:06:57
(UTC+02:00)

S-56A Canister/Altair - Pass Details

Date: 25 June 2024
Orbit: 638 x 2488 km, 38.9° (Epoch: 14 July)

Event Time Altitude Azimuth Distance (km) Brightness Sun altitude
Rises 00:13:06 0° 266° (W) 4,199 11.7 -21.6°
Reaches altitude 10° 00:15:33 10° 267° (W) 3,440 11.2 -21.8°
Maximum altitude 00:24:43 84° 356° (N) 1,836 9.3 -22.8°
Drops below altitude 10° 00:38:21 10° 85° (E) 4,917 11.4 -24.1°
Sets 00:42:34 0° 87° (E) 6,058 11.9 -24.5°
